Location: Roanoke
(37.2710°N, 79.9420°W)
Time: 05:36:21
(UTC-05:00)

Courier 1B Rocket - Pass Details

Date: 26 November 2019
Orbit: 920 x 1202 km, 28.2° (Epoch: 08 December)

Event Time Altitude Azimuth Distance (km) Brightness Sun altitude
Rises 17:03:19 0° 263° (W) 3,771 9.8 -0.7°
Reaches altitude 10° 17:06:33 10° 249° (WSW) 2,867 9.6 -1.3°
Maximum altitude 17:11:50 23° 200° (SSW) 2,145 7.5 -2.3°
Drops below altitude 10° 17:17:22 10° 152° (SSE) 3,017 7.5 -3.3°
Sets 17:20:54 0° 138° (SE) 4,017 8.0 -3.9°
